Location: Piotrkow Trybunalski
(51.4000°N, 19.6830°E)
Time: 04:04:52
(UTC+02:00)

A-11 Canister half - Pass Details

Date: 28 January 2023
Orbit: 1526 x 1682 km, 47.3° (Epoch: 24 March)

Event Time Altitude Azimuth Distance (km) Brightness Sun altitude
Rises 14:15:37 0° 287° (WNW) 4,765 11.8 13.9°
Reaches altitude 10° 14:19:29 10° 274° (W) 3,802 11.6 13.5°
Maximum altitude 14:26:28 23° 227° (SW) 2,934 12.6 12.9°
Drops below altitude 10° 14:33:37 10° 180° (S) 3,881 12.1 12.2°
Sets 14:37:38 0° 167° (SSE) 4,885 12.2 11.8°
